Time,TemperatureF,DewpointF,PressureIn,WindDirection,WindDirectionDegrees,WindSpeedMPH,WindSpeedGustMPH,Humidity,HourlyPrecipIn,Conditions,Clouds,dailyrainin,SoftwareType,DateUTC
2013-07-12 00:00:00,66.0,63.3,30.01,NNE,22,0.0,0.0,91,0.00,CLR,,0.00,WeatherDisplay:10.37,2013-07-12 04:00:00,
2013-07-12 00:01:00,66.0,63.3,30.01,NNE,22,0.0,0.0,91,0.00,CLR,,0.00,WeatherDisplay:10.37,2013-07-12 04:01:00,
2013-07-12 00:07:00,66.2,63.5,30.01,NNE,22,0.0,0.0,91,0.00,CLR,,0.00,WeatherDisplay:10.37,2013-07-12 04:07:00,
2013-07-12 00:12:00,66.2,63.5,30.01,NNE,22,0.0,0.0,91,0.00,CLR,,0.00,WeatherDisplay:10.37,2013-07-12 04:12:00,
2013-07-12 00:17:00,66.2,63.5,30.01,NNE,22,0.0,0.0,91,0.00,CLR,,0.00,WeatherDisplay:10.37,2013-07-12 04:17:00,
2013-07-12 00:22:00,66.0,63.3,30.01,NNE,22,0.0,0.0,91,0.00,CLR,,0.00,WeatherDisplay:10.37,2013-07-12 04:22:00,
2013-07-12 00:27:00,66.2,63.5,30.01,NNE,22,0.0,0.0,91,0.00,CLR,,0.00,WeatherDisplay:10.37,2013-07-12 04:27:00,
2013-07-12 00:32:00,66.0,63.3,30.01,NNE,22,0.0,0.0,91,0.00,CLR,,0.00,WeatherDisplay:10.37,2013-07-12 04:32:00,
2013-07-12 00:37:00,66.0,63.3,30.01,NNE,22,0.0,0.0,91,0.00,CLR,,0.00,WeatherDisplay:10.37,2013-07-12 04:37:00,
2013-07-12 00:42:00,66.0,63.3,30.01,NNE,22,0.0,0.0,91,0.00,CLR,,0.00,WeatherDisplay:10.37,2013-07-12 04:42:00,
2013-07-12 00:47:00,66.0,63.3,30.01,NNE,22,0.0,0.0,91,0.00,CLR,,0.00,WeatherDisplay:10.37,2013-07-12 04:47:00,
2013-07-12 00:52:00,66.0,63.0,30.01,NNE,22,0.0,0.0,90,0.00,CLR,,0.00,WeatherDisplay:10.37,2013-07-12 04:52:00,
2013-07-12 00:57:00,66.0,63.0,30.01,NNE,22,0.0,0.0,90,0.00,CLR,,0.00,WeatherDisplay:10.37,2013-07-12 04:57:00,
2013-07-12 01:02:00,66.0,63.0,30.01,NNE,22,0.0,0.0,90,0.00,CLR,,0.00,WeatherDisplay:10.37,2013-07-12 05:02:00,
2013-07-12 01:07:00,66.0,63.0,30.01,NNE,22,0.0,0.0,90,0.00,CLR,,0.00,WeatherDisplay:10.37,2013-07-12 05:07:00,
2013-07-12 01:12:00,65.7,62.6,30.01,NNE,22,0.0,0.0,90,0.00,CLR,,0.00,WeatherDisplay:10.37,2013-07-12 05:12:00,
2013-07-12 01:17:00,65.5,62.8,30.01,NNE,22,0.0,0.0,91,0.00,CLR,,0.00,WeatherDisplay:10.37,2013-07-12 05:17:00,
2013-07-12 01:22:00,65.3,62.6,30.01,NNE,22,0.0,0.0,91,0.00,CLR,,0.00,WeatherDisplay:10.37,2013-07-12 05:22:00,
2013-07-12 01:27:00,65.3,62.6,30.01,NNE,22,0.0,0.0,91,0.00,CLR,,0.00,WeatherDisplay:10.37,2013-07-12 05:27:00,
2013-07-12 01:32:00,65.1,62.4,30.01,NNE,22,0.0,0.0,91,0.00,CLR,,0.00,WeatherDisplay:10.37,2013-07-12 05:32:00,
2013-07-12 01:37:00,65.1,62.4,30.01,NNE,22,0.0,0.0,91,0.00,CLR,,0.00,WeatherDisplay:10.37,2013-07-12 05:37:00,
2013-07-12 01:42:00,65.1,62.4,30.01,NNE,22,0.0,0.0,91,0.00,CLR,,0.00,WeatherDisplay:10.37,2013-07-12 05:42:00,
2013-07-12 01:47:00,65.1,62.4,30.01,NNE,22,0.0,0.0,91,0.00,CLR,,0.00,WeatherDisplay:10.37,2013-07-12 05:47:00,
2013-07-12 01:52:00,65.1,62.4,30.01,NNE,22,0.0,0.0,91,0.00,CLR,,0.00,WeatherDisplay:10.37,2013-07-12 05:52:00,
2013-07-12 01:57:00,65.1,62.4,30.01,NNE,22,0.0,0.0,91,0.00,CLR,,0.00,WeatherDisplay:10.37,2013-07-12 05:57:00,
2013-07-12 02:02:00,65.1,62.4,30.01,NNE,22,0.0,0.0,91,0.00,CLR,,0.00,WeatherDisplay:10.37,2013-07-12 06:02:00,
2013-07-12 02:07:00,65.1,62.4,30.01,NNE,22,0.0,0.0,91,0.00,CLR,,0.00,WeatherDisplay:10.37,2013-07-12 06:07:00,
2013-07-12 02:12:00,65.1,62.4,30.01,NNE,22,0.0,0.0,91,0.00,CLR,,0.00,WeatherDisplay:10.37,2013-07-12 06:12:00,
2013-07-12 02:17:00,65.1,62.4,30.01,NNE,22,0.0,0.0,91,0.00,CLR,,0.00,WeatherDisplay:10.37,2013-07-12 06:17:00,
2013-07-12 02:22:00,64.9,62.2,30.01,NNE,22,0.0,0.0,91,0.00,CLR,,0.00,WeatherDisplay:10.37,2013-07-12 06:22:00,
2013-07-12 02:27:00,64.9,62.2,30.01,NNE,22,0.0,0.0,91,0.00,CLR,,0.00,WeatherDisplay:10.37,2013-07-12 06:27:00,
2013-07-12 02:32:00,64.9,62.2,30.00,NNE,22,0.0,0.0,91,0.00,CLR,,0.00,WeatherDisplay:10.37,2013-07-12 06:32:00,
2013-07-12 02:37:00,64.8,62.1,30.01,NNE,22,0.0,0.0,91,0.00,CLR,,0.00,WeatherDisplay:10.37,2013-07-12 06:37:00,
2013-07-12 02:42:00,64.8,62.1,30.00,NNE,22,0.0,0.0,91,0.00,CLR,,0.00,WeatherDisplay:10.37,2013-07-12 06:42:00,
2013-07-12 02:47:00,64.8,62.1,30.00,NNE,22,0.0,0.0,91,0.00,CLR,,0.00,WeatherDisplay:10.37,2013-07-12 06:47:00,
2013-07-12 02:52:00,64.6,61.9,30.00,NNE,22,0.0,0.0,91,0.00,CLR,,0.00,WeatherDisplay:10.37,2013-07-12 06:52:00,
2013-07-12 02:57:00,64.6,61.9,30.00,NNE,22,0.0,0.0,91,0.00,CLR,,0.00,WeatherDisplay:10.37,2013-07-12 06:57:00,
2013-07-12 03:02:00,64.6,61.9,30.00,NNE,22,0.0,0.0,91,0.00,CLR,,0.00,WeatherDisplay:10.37,2013-07-12 07:02:00,
2013-07-12 03:07:00,64.6,62.2,30.00,NNE,22,0.0,0.0,92,0.00,CLR,,0.00,WeatherDisplay:10.37,2013-07-12 07:07:00,
2013-07-12 03:12:00,64.2,61.8,30.00,NNE,22,0.0,0.0,92,0.00,CLR,,0.00,WeatherDisplay:10.37,2013-07-12 07:12:00,
2013-07-12 03:17:00,64.2,61.8,30.00,NNE,22,0.0,0.0,92,0.00,CLR,,0.00,WeatherDisplay:10.37,2013-07-12 07:17:00,
2013-07-12 03:22:00,64.2,61.8,30.00,NNE,22,0.0,0.0,92,0.00,CLR,,0.00,WeatherDisplay:10.37,2013-07-12 07:22:00,
2013-07-12 03:27:00,64.2,61.8,30.00,NNE,22,0.0,0.0,92,0.00,CLR,,0.00,WeatherDisplay:10.37,2013-07-12 07:27:00,
2013-07-12 03:32:00,64.0,61.7,30.00,NNE,22,0.0,0.0,92,0.00,CLR,,0.00,WeatherDisplay:10.37,2013-07-12 07:32:00,
2013-07-12 03:37:00,64.2,61.8,30.00,NNE,22,0.0,0.0,92,0.00,CLR,,0.00,WeatherDisplay:10.37,2013-07-12 07:37:00,
2013-07-12 03:42:00,64.2,61.8,30.00,NNE,22,0.0,0.0,92,0.00,CLR,,0.00,WeatherDisplay:10.37,2013-07-12 07:42:00,
2013-07-12 03:47:00,64.2,61.8,30.00,NNE,22,0.0,0.0,92,0.00,CLR,,0.00,WeatherDisplay:10.37,2013-07-12 07:47:00,
2013-07-12 03:52:00,64.0,61.7,30.00,NNE,22,0.0,0.0,92,0.00,CLR,,0.00,WeatherDisplay:10.37,2013-07-12 07:52:00,
2013-07-12 03:57:00,64.0,61.7,29.99,NNE,22,0.0,0.0,92,0.00,CLR,,0.00,WeatherDisplay:10.37,2013-07-12 07:57:00,
2013-07-12 04:02:00,64.0,61.7,30.00,NNE,22,0.0,0.0,92,0.00,CLR,,0.00,WeatherDisplay:10.37,2013-07-12 08:02:00,
2013-07-12 04:07:00,63.9,61.5,30.00,NNE,22,0.0,0.0,92,0.00,CLR,,0.00,WeatherDisplay:10.37,2013-07-12 08:07:00,
2013-07-12 04:12:00,63.9,61.5,30.00,NNE,22,0.0,0.0,92,0.00,CLR,,0.00,WeatherDisplay:10.37,2013-07-12 08:12:00,
2013-07-12 04:17:00,63.9,61.5,29.99,NNE,22,0.0,0.0,92,0.00,CLR,,0.00,WeatherDisplay:10.37,2013-07-12 08:17:00,
2013-07-12 04:22:00,64.0,61.7,29.99,NNE,22,0.0,0.0,92,0.00,CLR,,0.00,WeatherDisplay:10.37,2013-07-12 08:22:00,
2013-07-12 04:27:00,64.0,61.7,29.99,NNE,22,0.0,0.0,92,0.00,CLR,,0.00,WeatherDisplay:10.37,2013-07-12 08:27:00,
2013-07-12 04:32:00,64.0,61.7,29.99,NNE,22,0.0,0.0,92,0.00,CLR,,0.00,WeatherDisplay:10.37,2013-07-12 08:32:00,
2013-07-12 04:37:00,64.0,61.7,29.99,NNE,22,0.0,0.0,92,0.00,CLR,,0.00,WeatherDisplay:10.37,2013-07-12 08:37:00,
2013-07-12 04:42:00,64.0,61.7,29.99,NNE,22,0.0,0.0,92,0.00,CLR,,0.00,WeatherDisplay:10.37,2013-07-12 08:42:00,
2013-07-12 04:47:00,64.0,61.7,29.99,NNE,22,0.0,0.0,92,0.00,CLR,,0.00,WeatherDisplay:10.37,2013-07-12 08:47:00,
2013-07-12 04:52:00,64.0,61.7,29.99,NNE,22,0.0,0.0,92,0.00,CLR,,0.00,WeatherDisplay:10.37,2013-07-12 08:52:00,
2013-07-12 04:57:00,63.9,61.5,29.99,NNE,22,0.0,0.0,92,0.00,CLR,,0.00,WeatherDisplay:10.37,2013-07-12 08:57:00,
2013-07-12 05:02:00,63.9,61.5,29.99,NNE,22,0.0,0.0,92,0.00,CLR,,0.00,WeatherDisplay:10.37,2013-07-12 09:02:00,
2013-07-12 05:07:00,63.9,61.5,29.99,NNE,22,0.0,0.0,92,0.00,CLR,,0.00,WeatherDisplay:10.37,2013-07-12 09:07:00,
2013-07-12 05:12:00,63.9,61.5,29.99,NNE,22,0.0,0.0,92,0.00,CLR,,0.00,WeatherDisplay:10.37,2013-07-12 09:12:00,
2013-07-12 05:17:00,64.0,61.7,29.99,NNE,22,0.0,0.0,92,0.00,CLR,,0.00,WeatherDisplay:10.37,2013-07-12 09:17:00,
2013-07-12 05:22:00,64.0,61.7,29.99,NNE,22,0.0,0.0,92,0.00,CLR,,0.00,WeatherDisplay:10.37,2013-07-12 09:22:00,
2013-07-12 05:27:00,64.0,61.7,29.99,NNE,22,0.0,0.0,92,0.00,CLR,,0.00,WeatherDisplay:10.37,2013-07-12 09:27:00,
2013-07-12 05:32:00,64.0,61.7,30.00,NNE,22,0.0,0.0,92,0.00,CLR,,0.00,WeatherDisplay:10.37,2013-07-12 09:32:00,
2013-07-12 05:37:00,64.0,61.7,30.00,NNE,22,0.0,0.0,92,0.00,CLR,,0.00,WeatherDisplay:10.37,2013-07-12 09:37:00,
2013-07-12 05:42:00,64.0,61.7,30.00,NNE,22,0.0,0.0,92,0.00,CLR,,0.00,WeatherDisplay:10.37,2013-07-12 09:42:00,
2013-07-12 05:47:00,64.0,61.7,30.00,NNE,22,0.0,0.0,92,0.00,CLR,,0.00,WeatherDisplay:10.37,2013-07-12 09:47:00,
2013-07-12 05:52:00,64.0,62.0,30.00,NNE,22,0.0,0.0,93,0.00,CLR,,0.00,WeatherDisplay:10.37,2013-07-12 09:52:00,
2013-07-12 05:57:00,64.2,62.2,30.01,NNE,22,0.0,0.0,93,0.00,CLR,,0.00,WeatherDisplay:10.37,2013-07-12 09:57:00,
2013-07-12 06:02:00,64.2,62.2,30.01,NNE,22,0.0,0.0,93,0.00,CLR,,0.00,WeatherDisplay:10.37,2013-07-12 10:02:00,
2013-07-12 06:07:00,64.2,62.2,30.01,NNE,22,0.0,0.0,93,0.00,CLR,,0.00,WeatherDisplay:10.37,2013-07-12 10:07:00,
2013-07-12 06:12:00,64.2,62.2,30.01,NNE,22,0.0,0.0,93,0.00,CLR,,0.00,WeatherDisplay:10.37,2013-07-12 10:12:00,
2013-07-12 06:17:00,64.2,62.2,30.01,NNE,22,0.0,0.0,93,0.00,CLR,,0.00,WeatherDisplay:10.37,2013-07-12 10:17:00,
2013-07-12 06:22:00,64.2,62.2,30.01,NNE,22,0.0,0.0,93,0.00,CLR,,0.00,WeatherDisplay:10.37,2013-07-12 10:22:00,
2013-07-12 06:27:00,64.2,62.2,30.01,NNE,22,0.0,0.0,93,0.00,CLR,,0.00,WeatherDisplay:10.37,2013-07-12 10:27:00,
2013-07-12 06:32:00,64.6,62.5,30.02,NNE,22,0.0,0.0,93,0.00,CLR,,0.00,WeatherDisplay:10.37,2013-07-12 10:32:00,
2013-07-12 06:37:00,64.6,62.5,30.02,NNE,22,0.0,0.0,93,0.00,CLR,,0.00,WeatherDisplay:10.37,2013-07-12 10:37:00,
2013-07-12 06:42:00,64.6,62.5,30.02,NNE,22,0.0,0.0,93,0.00,CLR,,0.00,WeatherDisplay:10.37,2013-07-12 10:42:00,
2013-07-12 06:47:00,64.6,62.5,30.02,NNE,22,0.0,0.0,93,0.00,CLR,,0.00,WeatherDisplay:10.37,2013-07-12 10:47:00,
2013-07-12 06:52:00,64.6,62.5,30.02,NNE,22,0.0,0.0,93,0.00,CLR,,0.00,WeatherDisplay:10.37,2013-07-12 10:52:00,
2013-07-12 06:57:00,64.6,62.5,30.02,NNE,22,0.0,0.0,93,0.00,CLR,,0.00,WeatherDisplay:10.37,2013-07-12 10:57:00,
2013-07-12 07:02:00,64.6,62.5,30.02,NNE,22,0.0,0.0,93,0.00,CLR,,0.00,WeatherDisplay:10.37,2013-07-12 11:02:00,
2013-07-12 07:07:00,64.6,62.5,30.02,NNE,22,0.0,0.0,93,0.00,CLR,,0.00,WeatherDisplay:10.37,2013-07-12 11:07:00,
2013-07-12 07:12:00,64.8,62.7,30.02,NNE,22,0.0,0.0,93,0.00,CLR,,0.00,WeatherDisplay:10.37,2013-07-12 11:12:00,
2013-07-12 07:17:00,64.8,62.7,30.02,NNE,22,0.0,0.0,93,0.00,CLR,,0.00,WeatherDisplay:10.37,2013-07-12 11:17:00,
2013-07-12 07:22:00,64.9,62.9,30.02,NNE,22,0.0,0.0,93,0.00,CLR,,0.00,WeatherDisplay:10.37,2013-07-12 11:22:00,
2013-07-12 07:27:00,64.9,62.9,30.02,NNE,22,0.0,0.0,93,0.00,CLR,,0.00,WeatherDisplay:10.37,2013-07-12 11:27:00,
2013-07-12 07:32:00,65.1,63.0,30.03,NNE,22,0.0,0.0,93,0.00,CLR,,0.00,WeatherDisplay:10.37,2013-07-12 11:32:00,
2013-07-12 07:37:00,65.1,63.0,30.03,NNE,22,0.0,0.0,93,0.00,CLR,,0.00,WeatherDisplay:10.37,2013-07-12 11:37:00,
2013-07-12 07:42:00,65.1,63.0,30.03,NNE,22,0.0,0.0,93,0.00,CLR,,0.00,WeatherDisplay:10.37,2013-07-12 11:42:00,
2013-07-12 07:47:00,65.3,63.2,30.03,NNE,22,0.0,0.0,93,0.00,CLR,,0.00,WeatherDisplay:10.37,2013-07-12 11:47:00,
2013-07-12 07:52:00,65.3,63.2,30.03,NNE,22,0.0,0.0,93,0.00,CLR,,0.00,WeatherDisplay:10.37,2013-07-12 11:52:00,
2013-07-12 07:57:00,65.5,63.4,30.03,NNE,22,0.0,0.0,93,0.00,CLR,,0.00,WeatherDisplay:10.37,2013-07-12 11:57:00,
2013-07-12 08:02:00,65.5,63.4,30.03,NNE,22,0.0,0.0,93,0.00,CLR,,0.00,WeatherDisplay:10.37,2013-07-12 12:02:00,
2013-07-12 08:07:00,65.5,63.4,30.03,NNE,22,0.0,0.0,93,0.00,CLR,,0.00,WeatherDisplay:10.37,2013-07-12 12:07:00,
2013-07-12 08:12:00,65.5,63.4,30.03,NNE,22,0.0,0.0,93,0.00,CLR,,0.00,WeatherDisplay:10.37,2013-07-12 12:12:00,
2013-07-12 08:17:00,65.7,63.6,30.04,NNE,22,0.0,0.0,93,0.00,CLR,,0.00,WeatherDisplay:10.37,2013-07-12 12:17:00,
2013-07-12 08:22:00,65.8,63.8,30.04,NNE,22,0.0,0.0,93,0.00,CLR,,0.00,WeatherDisplay:10.37,2013-07-12 12:22:00,
2013-07-12 08:27:00,66.0,63.9,30.04,NNE,22,0.0,0.0,93,0.00,CLR,,0.00,WeatherDisplay:10.37,2013-07-12 12:27:00,
2013-07-12 08:32:00,66.0,63.9,30.04,NNE,22,0.0,0.0,93,0.00,CLR,,0.00,WeatherDisplay:10.37,2013-07-12 12:32:00,
2013-07-12 08:37:00,66.0,63.6,30.04,NNE,22,0.0,0.0,92,0.00,CLR,,0.00,WeatherDisplay:10.37,2013-07-12 12:37:00,
2013-07-12 08:42:00,66.0,63.6,30.04,NNE,22,0.0,0.0,92,0.00,CLR,,0.00,WeatherDisplay:10.37,2013-07-12 12:42:00,
2013-07-12 08:47:00,65.8,63.5,30.04,NNE,22,0.0,0.0,92,0.00,CLR,,0.00,WeatherDisplay:10.37,2013-07-12 12:47:00,
2013-07-12 08:52:00,65.8,63.5,30.05,NNE,22,0.0,0.0,92,0.00,CLR,,0.00,WeatherDisplay:10.37,2013-07-12 12:52:00,
2013-07-12 08:57:00,66.0,63.6,30.05,NNE,22,0.0,0.0,92,0.00,CLR,,0.00,WeatherDisplay:10.37,2013-07-12 12:57:00,
2013-07-12 09:02:00,66.0,63.6,30.05,NNE,22,0.0,0.0,92,0.00,CLR,,0.00,WeatherDisplay:10.37,2013-07-12 13:02:00,
2013-07-12 09:07:00,65.8,63.1,30.05,NNE,22,0.0,0.0,91,0.00,CLR,,0.00,WeatherDisplay:10.37,2013-07-12 13:07:00,
2013-07-12 09:12:00,65.8,62.8,30.05,NNE,22,0.0,0.0,90,0.00,CLR,,0.00,WeatherDisplay:10.37,2013-07-12 13:12:00,
2013-07-12 09:17:00,65.8,62.8,30.05,NNE,22,0.0,0.0,90,0.00,CLR,,0.00,WeatherDisplay:10.37,2013-07-12 13:17:00,
2013-07-12 09:22:00,66.0,63.0,30.05,NNE,22,0.0,0.0,90,0.00,CLR,,0.00,WeatherDisplay:10.37,2013-07-12 13:22:00,
2013-07-12 09:27:00,66.2,63.5,30.05,NNE,22,0.0,0.0,91,0.00,CLR,,0.00,WeatherDisplay:10.37,2013-07-12 13:27:00,
2013-07-12 09:32:00,66.4,63.4,30.05,NNE,22,0.0,0.0,90,0.00,CLR,,0.00,WeatherDisplay:10.37,2013-07-12 13:32:00,
2013-07-12 09:37:00,66.7,63.7,30.05,NNE,22,0.0,0.0,90,0.00,CLR,,0.00,WeatherDisplay:10.37,2013-07-12 13:37:00,
2013-07-12 09:42:00,67.6,64.6,30.05,NNE,22,1.1,1.8,90,0.00,CLR,,0.00,WeatherDisplay:10.37,2013-07-12 13:42:00,
2013-07-12 09:47:00,68.4,65.0,30.05,NNE,22,0.0,0.0,89,0.00,CLR,,0.00,WeatherDisplay:10.37,2013-07-12 13:47:00,
2013-07-12 09:52:00,68.5,64.2,30.05,NNE,22,0.0,0.0,86,0.00,CLR,,0.00,WeatherDisplay:10.37,2013-07-12 13:52:00,
2013-07-12 09:57:00,68.5,64.2,30.05,NNE,22,0.0,0.0,86,0.00,CLR,,0.00,WeatherDisplay:10.37,2013-07-12 13:57:00,
2013-07-12 10:02:00,68.5,64.2,30.05,NNE,22,0.0,0.0,86,0.00,CLR,,0.00,WeatherDisplay:10.37,2013-07-12 14:02:00,
2013-07-12 10:07:00,68.2,63.8,30.05,NNE,22,0.0,0.0,86,0.00,CLR,,0.00,WeatherDisplay:10.37,2013-07-12 14:07:00,
2013-07-12 10:13:00,68.2,63.8,30.05,NNE,22,0.0,0.0,86,0.00,CLR,,0.00,WeatherDisplay:10.37,2013-07-12 14:13:00,
2013-07-12 10:18:00,68.2,63.8,30.05,NNE,22,0.0,0.0,86,0.00,CLR,,0.00,WeatherDisplay:10.37,2013-07-12 14:18:00,
2013-07-12 10:23:00,68.2,63.8,30.05,NNE,22,0.0,0.0,86,0.00,CLR,,0.00,WeatherDisplay:10.37,2013-07-12 14:23:00,
2013-07-12 10:28:00,68.0,64.0,30.05,NNE,22,0.0,0.0,87,0.00,CLR,,0.00,WeatherDisplay:10.37,2013-07-12 14:28:00,
2013-07-12 10:33:00,68.2,64.2,30.05,NNE,22,0.0,0.0,87,0.00,CLR,,0.00,WeatherDisplay:10.37,2013-07-12 14:33:00,
2013-07-12 10:38:00,68.2,64.2,30.05,NNE,22,0.0,0.0,87,0.00,CLR,,0.00,WeatherDisplay:10.37,2013-07-12 14:38:00,
2013-07-12 10:43:00,68.7,64.7,30.06,NNE,22,0.0,0.0,87,0.00,CLR,,0.00,WeatherDisplay:10.37,2013-07-12 14:43:00,
2013-07-12 10:48:00,68.9,64.5,30.06,NNE,22,0.0,0.0,86,0.00,CLR,,0.00,WeatherDisplay:10.37,2013-07-12 14:48:00,
2013-07-12 10:53:00,68.5,63.8,30.06,NNE,22,0.0,0.0,85,0.00,CLR,,0.00,WeatherDisplay:10.37,2013-07-12 14:53:00,
2013-07-12 10:58:00,68.4,63.7,30.06,NNE,22,0.0,0.0,85,0.00,CLR,,0.00,WeatherDisplay:10.37,2013-07-12 14:58:00,
2013-07-12 11:03:00,67.8,63.1,30.06,NNE,22,0.0,0.0,85,0.00,CLR,,0.00,WeatherDisplay:10.37,2013-07-12 15:03:00,
2013-07-12 11:08:00,67.8,63.5,30.07,NNE,22,0.0,0.0,86,0.00,CLR,,0.00,WeatherDisplay:10.37,2013-07-12 15:08:00,
2013-07-12 11:13:00,68.0,63.3,30.07,NNE,22,0.0,0.0,85,0.00,CLR,,0.00,WeatherDisplay:10.37,2013-07-12 15:13:00,
2013-07-12 11:18:00,67.8,63.1,30.06,NNE,22,3.5,3.5,85,0.00,CLR,,0.00,WeatherDisplay:10.37,2013-07-12 15:18:00,
2013-07-12 11:23:00,67.8,63.1,30.06,NNE,22,2.3,2.3,85,0.00,CLR,,0.00,WeatherDisplay:10.37,2013-07-12 15:23:00,
2013-07-12 11:28:00,67.8,63.1,30.06,NNE,22,0.0,0.0,85,0.00,CLR,,0.00,WeatherDisplay:10.37,2013-07-12 15:28:00,
2013-07-12 11:33:00,68.7,64.0,30.06,NNE,22,0.0,0.0,85,0.00,CLR,,0.00,WeatherDisplay:10.37,2013-07-12 15:33:00,
2013-07-12 11:38:00,69.3,64.6,30.06,NNE,22,0.0,0.0,85,0.00,CLR,,0.00,WeatherDisplay:10.37,2013-07-12 15:38:00,
2013-07-12 11:43:00,70.0,64.9,30.06,NNE,22,0.0,0.0,84,0.00,CLR,,0.00,WeatherDisplay:10.37,2013-07-12 15:43:00,
2013-07-12 11:48:00,70.7,65.3,30.06,NNE,22,0.0,0.0,83,0.00,CLR,,0.00,WeatherDisplay:10.37,2013-07-12 15:48:00,
2013-07-12 11:53:00,71.2,65.1,30.06,NNE,22,4.6,4.6,81,0.00,CLR,,0.00,WeatherDisplay:10.37,2013-07-12 15:53:00,
2013-07-12 11:58:00,71.2,64.8,30.06,NNE,22,0.0,0.0,80,0.00,CLR,,0.00,WeatherDisplay:10.37,2013-07-12 15:58:00,
2013-07-12 12:03:00,70.7,64.2,30.07,NNE,22,1.1,1.1,80,0.00,CLR,,0.00,WeatherDisplay:10.37,2013-07-12 16:03:00,
2013-07-12 12:08:00,70.5,64.0,30.07,NNE,22,0.0,0.0,80,0.00,CLR,,0.00,WeatherDisplay:10.37,2013-07-12 16:08:00,
2013-07-12 12:13:00,70.3,63.9,30.06,NNE,22,0.0,0.0,80,0.00,CLR,,0.00,WeatherDisplay:10.37,2013-07-12 16:13:00,
2013-07-12 12:18:00,70.3,63.9,30.06,NNE,22,0.0,0.0,80,0.00,CLR,,0.00,WeatherDisplay:10.37,2013-07-12 16:18:00,
2013-07-12 12:23:00,70.7,64.2,30.06,NNE,22,0.0,0.0,80,0.00,CLR,,0.00,WeatherDisplay:10.37,2013-07-12 16:23:00,
2013-07-12 12:28:00,70.9,64.4,30.06,NNE,22,0.0,0.0,80,0.00,CLR,,0.00,WeatherDisplay:10.37,2013-07-12 16:28:00,
2013-07-12 12:33:00,71.2,64.4,30.06,NNE,22,0.0,0.0,79,0.00,CLR,,0.00,WeatherDisplay:10.37,2013-07-12 16:33:00,
2013-07-12 12:38:00,71.8,64.9,30.05,NNE,22,0.0,0.0,79,0.00,CLR,,0.00,WeatherDisplay:10.37,2013-07-12 16:38:00,
2013-07-12 12:43:00,72.1,64.9,30.05,NNE,22,0.0,0.0,78,0.00,CLR,,0.00,WeatherDisplay:10.37,2013-07-12 16:43:00,
2013-07-12 12:48:00,72.5,64.9,30.05,NNE,22,2.3,2.3,77,0.00,CLR,,0.00,WeatherDisplay:10.37,2013-07-12 16:48:00,
2013-07-12 12:53:00,72.7,64.7,30.06,NNE,22,0.0,0.0,76,0.00,CLR,,0.00,WeatherDisplay:10.37,2013-07-12 16:53:00,
2013-07-12 12:59:00,73.0,64.6,30.06,NNE,22,0.0,0.0,75,0.00,CLR,,0.00,WeatherDisplay:10.37,2013-07-12 16:59:00,
2013-07-12 13:04:00,73.6,65.5,30.05,NNE,22,0.0,0.0,76,0.00,CLR,,0.00,WeatherDisplay:10.37,2013-07-12 17:04:00,
2013-07-12 13:09:00,74.3,65.9,30.05,NNE,22,0.0,0.0,75,0.00,CLR,,0.00,WeatherDisplay:10.37,2013-07-12 17:09:00,
2013-07-12 13:14:00,74.5,65.6,30.05,NNE,22,0.0,0.0,74,0.00,CLR,,0.00,WeatherDisplay:10.37,2013-07-12 17:14:00,
2013-07-12 13:20:00,73.9,65.5,30.05,NNE,22,0.0,0.0,75,0.00,CLR,,0.00,WeatherDisplay:10.37,2013-07-12 17:20:00,
2013-07-12 13:25:00,73.6,65.2,30.05,NNE,22,0.0,0.0,75,0.00,CLR,,0.00,WeatherDisplay:10.37,2013-07-12 17:25:00,
2013-07-12 13:30:00,73.2,64.8,30.05,NNE,22,0.0,0.0,75,0.00,CLR,,0.00,WeatherDisplay:10.37,2013-07-12 17:30:00,
2013-07-12 13:35:00,73.5,65.1,30.05,NNE,22,0.0,0.0,75,0.00,CLR,,0.00,WeatherDisplay:10.37,2013-07-12 17:35:00,
2013-07-12 13:40:00,73.9,65.5,30.05,NNE,22,0.0,0.0,75,0.00,CLR,,0.00,WeatherDisplay:10.37,2013-07-12 17:40:00,
2013-07-12 13:45:00,74.5,66.0,30.06,NNE,22,1.0,1.0,75,0.00,CLR,,0.00,WeatherDisplay:10.37,2013-07-12 17:45:00,
2013-07-12 13:50:00,74.1,65.7,30.06,NNE,22,0.0,0.0,75,0.00,CLR,,0.00,WeatherDisplay:10.37,2013-07-12 17:50:00,
2013-07-12 13:55:00,73.2,64.8,30.06,NNE,22,0.0,0.0,75,0.00,CLR,,0.00,WeatherDisplay:10.37,2013-07-12 17:55:00,
2013-07-12 14:00:00,73.0,65.0,30.06,NNE,22,0.0,0.0,76,0.00,CLR,,0.00,WeatherDisplay:10.37,2013-07-12 18:00:00,
2013-07-12 14:05:00,72.5,64.9,30.06,NNE,22,0.0,0.0,77,0.00,CLR,,0.00,WeatherDisplay:10.37,2013-07-12 18:05:00,
2013-07-12 14:10:00,72.7,65.1,30.06,NNE,22,0.0,0.0,77,0.00,CLR,,0.00,WeatherDisplay:10.37,2013-07-12 18:10:00,
2013-07-12 14:16:00,73.0,65.4,30.06,NNE,22,0.0,0.0,77,0.00,CLR,,0.00,WeatherDisplay:10.37,2013-07-12 18:16:00,
2013-07-12 14:22:00,73.2,65.6,30.06,NNE,22,0.0,0.0,77,0.00,CLR,,0.00,WeatherDisplay:10.37,2013-07-12 18:22:00,
2013-07-12 14:27:00,73.6,65.9,30.05,NNE,22,0.0,0.0,77,0.00,CLR,,0.00,WeatherDisplay:10.37,2013-07-12 18:27:00,
2013-07-12 14:32:00,73.9,65.9,30.06,NNE,22,4.6,4.8,76,0.00,CLR,,0.00,WeatherDisplay:10.37,2013-07-12 18:32:00,
2013-07-12 14:37:00,74.1,65.7,30.06,NNE,22,0.0,0.0,75,0.00,CLR,,0.00,WeatherDisplay:10.37,2013-07-12 18:37:00,
2013-07-12 14:42:00,74.1,65.7,30.05,NNE,22,0.0,0.0,75,0.00,CLR,,0.00,WeatherDisplay:10.37,2013-07-12 18:42:00,
2013-07-12 14:47:00,73.9,65.5,30.05,NNE,22,0.0,0.0,75,0.00,CLR,,0.00,WeatherDisplay:10.37,2013-07-12 18:47:00,
2013-07-12 14:52:00,73.6,65.2,30.05,NNE,22,0.0,0.0,75,0.00,CLR,,0.00,WeatherDisplay:10.37,2013-07-12 18:52:00,
2013-07-12 14:57:00,73.6,65.9,30.06,NNE,22,1.1,1.1,77,0.00,CLR,,0.00,WeatherDisplay:10.37,2013-07-12 18:57:00,
2013-07-12 15:03:00,74.5,66.8,30.06,NNE,22,0.0,0.0,77,0.00,CLR,,0.00,WeatherDisplay:10.37,2013-07-12 19:03:00,
2013-07-12 15:09:00,75.0,66.6,30.05,NNE,22,0.0,0.0,75,0.00,CLR,,0.00,WeatherDisplay:10.37,2013-07-12 19:09:00,
2013-07-12 15:14:00,75.4,66.5,30.05,NNE,22,0.0,0.0,74,0.00,CLR,,0.00,WeatherDisplay:10.37,2013-07-12 19:14:00,
2013-07-12 15:19:00,75.7,66.9,30.05,NNE,22,0.0,0.0,74,0.00,CLR,,0.00,WeatherDisplay:10.37,2013-07-12 19:19:00,
2013-07-12 15:24:00,75.4,65.7,30.05,NNE,22,1.1,1.1,72,0.00,CLR,,0.00,WeatherDisplay:10.37,2013-07-12 19:24:00,
2013-07-12 15:29:00,74.8,65.6,30.04,NNE,22,0.0,0.0,73,0.00,CLR,,0.00,WeatherDisplay:10.37,2013-07-12 19:29:00,
2013-07-12 15:35:00,75.2,66.4,30.04,NNE,22,0.0,2.0,74,0.00,CLR,,0.00,WeatherDisplay:10.37,2013-07-12 19:35:00,
2013-07-12 15:40:00,75.4,66.1,30.04,NNE,22,0.0,2.0,73,0.00,CLR,,0.00,WeatherDisplay:10.37,2013-07-12 19:40:00,
2013-07-12 15:45:00,75.4,66.1,30.04,NNE,22,0.0,0.0,73,0.00,CLR,,0.00,WeatherDisplay:10.37,2013-07-12 19:45:00,
2013-07-12 15:50:00,75.7,66.1,30.04,NNE,22,0.0,0.0,72,0.00,CLR,,0.00,WeatherDisplay:10.37,2013-07-12 19:50:00,
2013-07-12 15:56:00,75.6,65.5,30.03,NNE,22,0.0,0.0,71,0.00,CLR,,0.00,WeatherDisplay:10.37,2013-07-12 19:56:00,
2013-07-12 16:01:00,75.4,64.9,30.03,NNE,22,0.0,0.0,70,0.00,CLR,,0.00,WeatherDisplay:10.37,2013-07-12 20:01:00,
2013-07-12 16:06:00,75.4,65.3,30.03,NNE,22,0.0,0.0,71,0.00,CLR,,0.00,WeatherDisplay:10.37,2013-07-12 20:06:00,
2013-07-12 16:11:00,75.4,65.7,30.03,NNE,22,0.0,0.0,72,0.00,CLR,,0.00,WeatherDisplay:10.37,2013-07-12 20:11:00,
2013-07-12 16:17:00,75.4,65.7,30.03,NNE,22,0.0,0.0,72,0.00,CLR,,0.00,WeatherDisplay:10.37,2013-07-12 20:17:00,
2013-07-12 16:22:00,75.0,65.0,30.03,NNE,22,0.0,0.0,71,0.00,CLR,,0.00,WeatherDisplay:10.37,2013-07-12 20:22:00,
2013-07-12 16:27:00,74.1,64.5,30.03,NNE,22,0.0,0.0,72,0.00,CLR,,0.00,WeatherDisplay:10.37,2013-07-12 20:27:00,
2013-07-12 16:32:00,73.9,64.3,30.03,NNE,22,0.0,0.0,72,0.00,CLR,,0.00,WeatherDisplay:10.37,2013-07-12 20:32:00,
2013-07-12 16:38:00,73.8,64.2,30.03,NNE,22,0.0,0.0,72,0.00,CLR,,0.00,WeatherDisplay:10.37,2013-07-12 20:38:00,
2013-07-12 16:43:00,73.4,64.2,30.03,NNE,22,0.0,0.0,73,0.00,CLR,,0.00,WeatherDisplay:10.37,2013-07-12 20:43:00,
2013-07-12 16:48:00,73.0,64.3,30.03,NNE,22,0.0,0.0,74,0.00,CLR,,0.00,WeatherDisplay:10.37,2013-07-12 20:48:00,
2013-07-12 16:53:00,73.0,64.3,30.03,NNE,22,0.0,0.0,74,0.00,CLR,,0.00,WeatherDisplay:10.37,2013-07-12 20:53:00,
2013-07-12 16:59:00,72.7,63.9,30.03,NNE,22,0.0,0.0,74,0.00,CLR,,0.00,WeatherDisplay:10.37,2013-07-12 20:59:00,
2013-07-12 17:04:00,72.5,64.1,30.03,NNE,22,0.0,0.0,75,0.00,CLR,,0.00,WeatherDisplay:10.37,2013-07-12 21:04:00,
2013-07-12 17:09:00,72.3,63.9,30.03,NNE,22,0.0,0.0,75,0.00,CLR,,0.00,WeatherDisplay:10.37,2013-07-12 21:09:00,
2013-07-12 17:14:00,72.3,63.9,30.03,NNE,22,0.0,0.0,75,0.00,CLR,,0.00,WeatherDisplay:10.37,2013-07-12 21:14:00,
2013-07-12 17:19:00,72.1,63.8,30.03,NNE,22,0.0,0.0,75,0.00,CLR,,0.00,WeatherDisplay:10.37,2013-07-12 21:19:00,
2013-07-12 17:24:00,72.1,64.2,30.04,NNE,22,0.0,0.0,76,0.00,CLR,,0.00,WeatherDisplay:10.37,2013-07-12 21:24:00,
2013-07-12 17:29:00,72.1,64.2,30.04,NNE,22,0.0,0.0,76,0.00,CLR,,0.00,WeatherDisplay:10.37,2013-07-12 21:29:00,
2013-07-12 17:34:00,72.0,63.6,30.03,NNE,22,0.0,0.0,75,0.00,CLR,,0.00,WeatherDisplay:10.37,2013-07-12 21:34:00,
2013-07-12 17:40:00,71.4,62.7,30.04,NNE,22,0.0,0.0,74,0.00,CLR,,0.00,WeatherDisplay:10.37,2013-07-12 21:40:00,
2013-07-12 17:45:00,70.5,61.1,30.05,NNE,22,1.1,1.1,72,0.00,CLR,,0.00,WeatherDisplay:10.37,2013-07-12 21:45:00,
2013-07-12 17:51:00,69.8,60.8,30.06,NNE,22,0.0,0.0,73,0.00,CLR,,0.00,WeatherDisplay:10.37,2013-07-12 21:51:00,
2013-07-12 17:56:00,67.1,58.9,30.07,NNE,22,0.0,0.0,75,0.00,CLR,,0.00,WeatherDisplay:10.37,2013-07-12 21:56:00,
2013-07-12 18:02:00,64.9,57.6,30.05,NNE,22,0.0,0.0,77,0.00,CLR,,0.00,WeatherDisplay:10.37,2013-07-12 22:02:00,
2013-07-12 18:07:00,63.7,57.7,30.04,NNE,22,0.0,0.0,81,0.00,CLR,,0.00,WeatherDisplay:10.37,2013-07-12 22:07:00,
2013-07-12 18:13:00,62.6,58.0,30.03,NNE,22,0.0,0.0,85,0.00,CLR,,0.00,WeatherDisplay:10.37,2013-07-12 22:13:00,
2013-07-12 18:19:00,62.4,57.8,30.04,NNE,22,0.0,0.0,85,0.00,CLR,,0.00,WeatherDisplay:10.37,2013-07-12 22:19:00,
2013-07-12 18:24:00,62.4,58.2,30.05,NNE,22,0.0,0.0,86,0.00,CLR,,0.00,WeatherDisplay:10.37,2013-07-12 22:24:00,
2013-07-12 18:29:00,62.2,58.0,30.05,NNE,22,0.0,0.0,86,0.00,CLR,,0.00,WeatherDisplay:10.37,2013-07-12 22:29:00,
2013-07-12 18:34:00,61.9,57.6,30.06,NNE,22,0.0,0.0,86,0.00,CLR,,0.00,WeatherDisplay:10.37,2013-07-12 22:34:00,
2013-07-12 18:40:00,61.7,57.8,30.06,NNE,22,0.0,0.0,87,0.00,CLR,,0.00,WeatherDisplay:10.37,2013-07-12 22:40:00,
2013-07-12 18:45:00,61.9,58.3,30.06,NNE,22,0.0,0.0,88,0.00,CLR,,0.00,WeatherDisplay:10.37,2013-07-12 22:45:00,
2013-07-12 18:50:00,61.7,58.1,30.07,NNE,22,0.0,0.0,88,0.00,CLR,,0.00,WeatherDisplay:10.37,2013-07-12 22:50:00,
2013-07-12 18:55:00,61.7,58.1,30.06,NNE,22,0.0,0.0,88,0.00,CLR,,0.00,WeatherDisplay:10.37,2013-07-12 22:55:00,
2013-07-12 19:00:00,61.7,58.1,30.06,NNE,22,0.0,0.0,88,0.00,CLR,,0.00,WeatherDisplay:10.37,2013-07-12 23:00:00,
2013-07-12 19:05:00,61.7,58.4,30.05,NNE,22,0.0,1.0,89,0.00,CLR,,0.00,WeatherDisplay:10.37,2013-07-12 23:05:00,
2013-07-12 19:10:00,61.9,58.6,30.03,NNE,22,0.0,0.0,89,0.00,CLR,,0.00,WeatherDisplay:10.37,2013-07-12 23:10:00,
2013-07-12 19:15:00,61.9,58.6,30.05,NNE,22,3.5,3.5,89,0.00,CLR,,0.00,WeatherDisplay:10.37,2013-07-12 23:15:00,
2013-07-12 19:20:00,62.1,59.1,30.06,NNE,22,0.0,0.0,90,0.00,CLR,,0.00,WeatherDisplay:10.37,2013-07-12 23:20:00,
2013-07-12 19:25:00,62.1,59.1,30.06,NNE,22,0.0,0.0,90,0.00,CLR,,0.00,WeatherDisplay:10.37,2013-07-12 23:25:00,
2013-07-12 19:30:00,62.1,59.1,30.05,NNE,22,0.0,0.0,90,0.00,CLR,,0.00,WeatherDisplay:10.37,2013-07-12 23:30:00,
2013-07-12 19:35:00,62.2,59.6,30.06,NNE,22,1.1,1.1,91,0.00,CLR,,0.00,WeatherDisplay:10.37,2013-07-12 23:35:00,
2013-07-12 19:41:00,62.1,59.4,30.06,NNE,22,0.0,0.0,91,0.00,CLR,,0.00,WeatherDisplay:10.37,2013-07-12 23:41:00,
2013-07-12 19:46:00,61.9,59.2,30.05,NNE,22,0.0,0.0,91,0.00,CLR,,0.00,WeatherDisplay:10.37,2013-07-12 23:46:00,
2013-07-12 19:53:00,61.9,59.2,30.05,NNE,22,9.2,9.3,91,0.00,CLR,,0.00,WeatherDisplay:10.37,2013-07-12 23:53:00,
2013-07-12 19:58:00,61.9,59.2,30.06,NNE,22,0.0,0.0,91,0.00,CLR,,0.00,WeatherDisplay:10.37,2013-07-12 23:58:00,
2013-07-12 20:03:00,61.9,59.2,30.06,NNE,22,0.0,0.0,91,0.00,CLR,,0.00,WeatherDisplay:10.37,2013-07-13 00:03:00,
2013-07-12 20:08:00,61.9,59.2,30.07,NNE,22,0.0,0.0,91,0.00,CLR,,0.00,WeatherDisplay:10.37,2013-07-13 00:08:00,
2013-07-12 20:14:00,61.9,59.2,30.08,NNE,22,0.0,0.0,91,0.00,CLR,,0.00,WeatherDisplay:10.37,2013-07-13 00:14:00,
2013-07-12 20:19:00,61.9,59.2,30.08,NNE,22,0.0,0.0,91,0.00,CLR,,0.00,WeatherDisplay:10.37,2013-07-13 00:19:00,
2013-07-12 20:24:00,61.9,59.2,30.09,NNE,22,0.0,0.0,91,0.00,CLR,,0.00,WeatherDisplay:10.37,2013-07-13 00:24:00,
2013-07-12 20:29:00,61.9,59.2,30.09,NNE,22,0.0,0.0,91,0.00,CLR,,0.00,WeatherDisplay:10.37,2013-07-13 00:29:00,
2013-07-12 20:34:00,61.9,59.2,30.08,NNE,22,0.0,0.0,91,0.00,CLR,,0.00,WeatherDisplay:10.37,2013-07-13 00:34:00,
2013-07-12 20:39:00,61.9,59.2,30.08,NNE,22,0.0,0.0,91,0.00,CLR,,0.00,WeatherDisplay:10.37,2013-07-13 00:39:00,
2013-07-12 20:44:00,61.9,59.2,30.08,NNE,22,0.0,0.0,91,0.00,CLR,,0.00,WeatherDisplay:10.37,2013-07-13 00:44:00,
2013-07-12 20:50:00,61.9,59.2,30.08,NNE,22,0.0,0.0,91,0.00,CLR,,0.00,WeatherDisplay:10.37,2013-07-13 00:50:00,
2013-07-12 20:55:00,61.9,59.2,30.09,NNE,22,0.0,0.0,91,0.00,CLR,,0.00,WeatherDisplay:10.37,2013-07-13 00:55:00,
2013-07-12 21:00:00,61.7,59.0,30.08,NNE,22,0.0,0.0,91,0.00,CLR,,0.00,WeatherDisplay:10.37,2013-07-13 01:00:00,
2013-07-12 21:05:00,61.7,59.0,30.08,NNE,22,0.0,0.0,91,0.00,CLR,,0.00,WeatherDisplay:10.37,2013-07-13 01:05:00,
2013-07-12 21:10:00,61.7,59.4,30.08,NNE,22,0.0,0.0,92,0.00,CLR,,0.00,WeatherDisplay:10.37,2013-07-13 01:10:00,
2013-07-12 21:15:00,61.9,59.5,30.08,NNE,22,0.0,0.0,92,0.00,CLR,,0.00,WeatherDisplay:10.37,2013-07-13 01:15:00,
2013-07-12 21:20:00,61.9,59.5,30.09,NNE,22,0.0,0.0,92,0.00,CLR,,0.00,WeatherDisplay:10.37,2013-07-13 01:20:00,
2013-07-12 21:25:00,61.9,59.5,30.09,NNE,22,0.0,0.0,92,0.00,CLR,,0.00,WeatherDisplay:10.37,2013-07-13 01:25:00,
2013-07-12 21:31:00,62.1,59.7,30.09,NNE,22,0.0,0.0,92,0.00,CLR,,0.00,WeatherDisplay:10.37,2013-07-13 01:31:00,
2013-07-12 21:36:00,62.1,59.7,30.09,NNE,22,0.0,0.0,92,0.00,CLR,,0.00,WeatherDisplay:10.37,2013-07-13 01:36:00,
2013-07-12 21:41:00,61.9,59.5,30.09,NNE,22,0.0,0.0,92,0.00,CLR,,0.00,WeatherDisplay:10.37,2013-07-13 01:41:00,
2013-07-12 21:46:00,61.9,59.5,30.09,NNE,22,0.0,0.0,92,0.00,CLR,,0.00,WeatherDisplay:10.37,2013-07-13 01:46:00,
2013-07-12 21:51:00,61.7,59.4,30.10,NNE,22,0.0,0.0,92,0.00,CLR,,0.00,WeatherDisplay:10.37,2013-07-13 01:51:00,
2013-07-12 21:56:00,61.5,59.2,30.09,NNE,22,0.0,0.0,92,0.00,CLR,,0.00,WeatherDisplay:10.37,2013-07-13 01:56:00,
2013-07-12 22:02:00,61.5,59.2,30.10,NNE,22,0.0,0.0,92,0.00,CLR,,0.00,WeatherDisplay:10.37,2013-07-13 02:02:00,
2013-07-12 22:07:00,61.3,59.0,30.10,NNE,22,0.0,0.0,92,0.00,CLR,,0.00,WeatherDisplay:10.37,2013-07-13 02:07:00,
2013-07-12 22:12:00,61.3,59.0,30.10,NNE,22,0.0,0.0,92,0.00,CLR,,0.00,WeatherDisplay:10.37,2013-07-13 02:12:00,
2013-07-12 22:17:00,61.2,58.8,30.11,NNE,22,0.0,0.5,92,0.00,CLR,,0.00,WeatherDisplay:10.37,2013-07-13 02:17:00,
2013-07-12 22:23:00,61.2,58.8,30.11,NNE,22,21.9,22.3,92,0.00,CLR,,0.00,WeatherDisplay:10.37,2013-07-13 02:23:00,
2013-07-12 22:28:00,61.0,58.6,30.11,NNE,22,14.0,0.0,92,0.00,CLR,,0.00,WeatherDisplay:10.37,2013-07-13 02:28:00,
2013-07-12 22:33:00,61.0,58.6,30.12,NNE,22,19.6,19.6,92,0.00,CLR,,0.00,WeatherDisplay:10.37,2013-07-13 02:33:00,
2013-07-12 22:38:00,60.8,58.5,30.12,NNE,22,0.0,0.0,92,0.00,CLR,,0.00,WeatherDisplay:10.37,2013-07-13 02:38:00,
2013-07-12 22:43:00,60.6,58.3,30.12,NNE,22,0.0,0.0,92,0.00,CLR,,0.00,WeatherDisplay:10.37,2013-07-13 02:43:00,
2013-07-12 22:48:00,60.6,58.3,30.12,NNE,22,0.0,0.0,92,0.00,CLR,,0.00,WeatherDisplay:10.37,2013-07-13 02:48:00,
2013-07-12 22:54:00,60.8,58.8,30.12,NNE,22,23.0,23.0,93,0.00,CLR,,0.00,WeatherDisplay:10.37,2013-07-13 02:54:00,
2013-07-12 22:59:00,60.6,58.6,30.11,NNE,22,18.4,20.0,93,0.00,CLR,,0.00,WeatherDisplay:10.37,2013-07-13 02:59:00,
2013-07-12 23:04:00,60.6,58.6,30.11,NNE,22,21.9,21.9,93,0.00,CLR,,0.00,WeatherDisplay:10.37,2013-07-13 03:04:00,
2013-07-12 23:09:00,60.6,58.6,30.11,NNE,22,20.7,21.6,93,0.00,CLR,,0.00,WeatherDisplay:10.37,2013-07-13 03:09:00,
2013-07-12 23:14:00,60.6,58.6,30.11,NNE,22,23.0,24.3,93,0.00,CLR,,0.00,WeatherDisplay:10.37,2013-07-13 03:14:00,
2013-07-12 23:19:00,60.6,58.6,30.11,NNE,22,0.0,1.2,93,0.00,CLR,,0.00,WeatherDisplay:10.37,2013-07-13 03:19:00,
2013-07-12 23:24:00,60.6,58.6,30.11,NNE,22,0.0,0.0,93,0.00,CLR,,0.00,WeatherDisplay:10.37,2013-07-13 03:24:00,
2013-07-12 23:30:00,60.6,58.6,30.11,NNE,22,20.7,22.1,93,0.00,CLR,,0.00,WeatherDisplay:10.37,2013-07-13 03:30:00,
2013-07-12 23:35:00,60.6,58.6,30.11,NNE,22,0.0,28.0,93,0.00,CLR,,0.00,WeatherDisplay:10.37,2013-07-13 03:35:00,
2013-07-12 23:40:00,60.4,58.4,30.10,NNE,22,0.0,0.0,93,0.00,CLR,,0.00,WeatherDisplay:10.37,2013-07-13 03:40:00,
2013-07-12 23:45:00,60.4,58.4,30.10,NNE,22,0.0,0.0,93,0.00,CLR,,0.00,WeatherDisplay:10.37,2013-07-13 03:45:00,
2013-07-12 23:50:00,60.4,58.4,30.10,NNE,22,0.0,0.0,93,0.00,CLR,,0.00,WeatherDisplay:10.37,2013-07-13 03:50:00,
2013-07-12 23:55:00,60.4,58.4,30.10,NNE,22,0.0,29.0,93,0.00,CLR,,0.00,WeatherDisplay:10.37,2013-07-13 03:55:00,